User: anonymous   Login
Location: Bismarck
(46.7731°N, 100.8200°W)
Time: 05:48:48
(UTC-06:00)
Language:

Cosmos 2219 Rocket - Orbit

View from above orbital plane
View from above orbital plane
View from above satellite
View from above satellite

Ground track
Ground track

The orbit data is extracted from the following two-line orbital elements,

1 22220U 92076B   17058.09347699 -.00000232  00000-0 -92526-4 0  9997
2 22220  70.9997 290.9923 0010525  78.7931  27.6956 14.16411480255189
Epoch (UTC): 27 February 2017 02:14:36
Eccentricity: 0.0010525
inclination: 70.9997°
perigee height: 830 km
apogee height: 845 km
right ascension of ascending node: 290.9923°
argument of perigee: 78.7931°
revolutions per day: 14.16411480
mean anomaly at epoch: 27.6956°
orbit number at epoch: 25518

The dashed part of the orbit path shows where the satellite is in the earth's shadow,  

DLR